Find Flock 4be-7

NORAD ID: 60481 Int'l Des: 2024-149 Owner: PLAN Country: US Constellation: planet operational
LEOCIRCULARRETROGRADESSO

实时位置

正在加载3D地球...

关于 Flock 4be-7

正在加载描述...

即将过境

Passes for default location (London). Set your location on the main map for personalized predictions.

高度历史

Loading altitude history...

两行轨道根数

1 60481U 24149P 26107.16637876 .00010617 00000-0 28769-3 0 9999
2 60481 97.3772 189.8336 0004386 121.5002 238.6672 15.37828453 92861
Epoch: Apr 17, 2026 • Age: 15 hours

当前状态

高度 455.8 km
速度 7.64 km/s
星下点 41.86°N, 108.51°W
发射日期 Aug 16, 2024
运行时间 1.6 years
类型 earth observation

技术详情

分类 Payload
质量 5.70 kg
干质量 5.70 kg
总质量 5.70 kg
长度 0.30 m
直径 0.10 m
跨度 0.30 m
形状 Box+2 pan
制造商 PLAN
平台类型 Cubesat 3U
阶段状态 In Orbit
所有者/国家 PLAN/US

Most Searched